Вернуться в каталог

STARLINK-36628

АктивенСвязьSSO
NORAD 67595·PAYLOAD·🇺🇸 United States

Запущен Jan 29, 2026 с Vandenberg Space Force Base

Loading…

Ближайшие Пролёты (ближайшие 24 часа)

TLE

СвежийSource: CelesTrak SupGP

Эпоха: Sep 14, 2026, 23:08 UTC

1 67595C 26018G   26257.96437500  .00002511  00000+0  77947-4 0  2578
2 67595  97.2856 321.4735 0000519  98.7933 140.8581 15.33440426    10

Отслеживайте STARLINK-36628 в реальном времени с AllMySat

Download on the App Store